Location: ?
(35.3436°N, 139.3168°E)
Time: 08:27:12
(UTC+00:00)

Cosmos 1484 Rocket - Pass Details

Date: 29 October 2020
Orbit: 504 x 560 km, 97.4° (Epoch: 02 December)

Event Time Altitude Azimuth Distance (km) Brightness Sun altitude
Rises 19:37:39 0° 4° (N) 2,674 6.3 -17.8°
Reaches altitude 10° 19:39:50 10° 358° (N) 1,771 5.3 -17.3°
Maximum altitude 19:43:28 44° 286° (WNW) 722 2.9 -16.6°
Drops below altitude 10° 19:47:02 10° 213° (SSW) 1,731 5.1 -15.9°
Sets 19:49:09 0° 206° (SSW) 2,605 6.1 -15.4°
